SL-14 DEB, 45284

Orbit data source: Space-Track

SL-14 DEB, 45284 is space debris in LEO originally from a launch on Thu, 15 Aug 1991 UTC launched from the Plesetsk Missile And Space Complex (PKMTR). Debris objects in space refer to the collection of defunct objects orbiting the Earth. Examples of debris include non-operational satellites, rocket bodies, and fragments generated from explosions, collisions, or faulty payload assembly.

Loading next visibility...
Identifier
45284, 1991-056W
Orbit
LEO
Country
Flag of CISCIS
Related business
Manufacturer
Unknown
Mission
Spacecraft
Bus & Motor
Unknown
Mass
Unknown
Launch date (UTC)
1991-08-15 (35 years ago)
Launch vehicle
Unknown
Launch site
Plesetsk Missile And Space Complex (PKMTR)
Object type
Payload
Rocket body
Debris
Shape & HBR
Unknown shape, 0.2 m
Radar Cross Section
Medium (>0.1 m² and <1 m²)

Expand to show TLE details & history
Last TLE update: 21 hours ago

TLE from 21 hours ago
0 SL-14 DEB
1 45284U 91056W   26206.29262819  .00003335  00000-0  53011-2 0  9995
2 45284  82.5775  49.5451 0111150 132.3461 228.7158 13.46669087314276
Epoch: 2026-07-25T07:01Z
TLE epoch observation values (Epoch: 2026-07-25T07:01:23.075Z)
Latitude
-0.00006°
Longitude
1.19195°
Altitude
1,142.644 km
Speed
7.255 km/s
True Right ascension
03h 18m 10s
True Declination
0° 00' 00"
Sunlit
Object was in daylight at epoch
Visualization orbit readout
Latitude
Unknown
Longitude
Unknown
Altitude
Unknown
Speed
Unknown
Apparent Right ascension
Unknown
Apparent Declination
Unknown
Sunlit
N/A
Visualization observer readout
Local Sidereal Time
17:02:26
Azimuth
Unknown
Elevation
Unknown
Doppler factor
Unknown
Orbital elements
Apogee altitude
1,164.657 km
Perigee altitude
998.824 km
Semi-major axis
7,459.878 km
Eccentricity
0.01112
Inclination
82.5775°
RAAN
49.5451°
Arg. of periapsis
132.3461°
True anomaly
227.76743°
Mean anomaly
228.7158°
Eccentric anomaly
228.24075°
Mean motion
3.36857 °/min
Orbital period
106.87 mins
BSTAR
0.0053011
Loading maneuver chart data...
Computing Atmospheric mass density...
Loading historical data...
Loading historical data...
Loading historical data...
Loading historical data...
Loading historical data...
Loading historical data...
Loading historical data...

Documentation

Showing up to 5 results
|